Location: Branche des Alpilles
(43.6087°N, 4.6976°E)
Time: 20:18:21
(UTC+00:00)

Tiangong - Pass Details

Date: 26 September 2021
Orbit: 382 x 385 km, 41.5° (Epoch: 16 October)

Event Time Altitude Azimuth Distance (km) Brightness Sun altitude
Exits shadow 03:57:30 10° 172° (S) 1,420 3.8 -17.9°
Reaches altitude 10° 03:57:41 10° 169° (S) 1,392 3.8 -17.9°
Maximum altitude 03:58:46 11° 149° (SSE) 1,313 3.9 -17.7°
Drops below altitude 10° 03:59:52 10° 128° (SE) 1,394 4.4 -17.5°
Sets 04:03:04 0° 93° (E) 2,250 6.4 -16.9°
